Time,TemperatureF,DewpointF,PressureIn,WindDirection,WindDirectionDegrees,WindSpeedMPH,WindSpeedGustMPH,Humidity,HourlyPrecipIn,Conditions,Clouds,dailyrainin,SolarRadiationWatts/m^2,SoftwareType,DateUTC
2013-05-08 00:00:00,62.0,41.0,-100.00,East,90,2.0,-999.0,46,-99.99,,,-99.99,0.000000,,2013-05-08 04:00:00,
2013-05-08 00:43:00,62.0,41.0,-100.00,East,90,2.0,-999.0,46,-99.99,,,-99.99,0.000000,,2013-05-08 04:43:00,
2013-05-08 00:53:00,62.0,41.0,-100.00,East,90,2.0,-999.0,46,-99.99,,,-99.99,0.000000,,2013-05-08 04:53:00,
2013-05-08 01:00:00,60.0,43.0,-100.00,ESE,112,1.0,-999.0,53,-99.99,,,-99.99,0.000000,,2013-05-08 05:00:00,
2013-05-08 01:42:00,60.0,43.0,-100.00,ESE,112,1.0,-999.0,53,-99.99,,,-99.99,0.000000,,2013-05-08 05:42:00,
2013-05-08 01:52:00,60.0,43.0,-100.00,ESE,112,1.0,-999.0,53,-99.99,,,-99.99,0.000000,,2013-05-08 05:52:00,
2013-05-08 02:00:00,59.0,44.0,-100.00,East,90,3.0,-999.0,57,-99.99,,,-99.99,0.000000,,2013-05-08 06:00:00,
2013-05-08 02:42:00,59.0,44.0,-100.00,East,90,3.0,-999.0,57,-99.99,,,-99.99,0.000000,,2013-05-08 06:42:00,
2013-05-08 02:52:00,59.0,44.0,-100.00,East,90,3.0,-999.0,57,-99.99,,,-99.99,0.000000,,2013-05-08 06:52:00,
2013-05-08 03:00:00,59.0,46.0,-100.00,ESE,112,4.0,-999.0,61,-99.99,,,-99.99,0.000000,,2013-05-08 07:00:00,
2013-05-08 03:42:00,59.0,46.0,-100.00,ESE,112,4.0,-999.0,61,-99.99,,,-99.99,0.000000,,2013-05-08 07:42:00,
2013-05-08 03:52:00,59.0,46.0,-100.00,ESE,112,4.0,-999.0,61,-99.99,,,-99.99,0.000000,,2013-05-08 07:52:00,
2013-05-08 04:00:00,59.0,47.0,-100.00,SE,135,4.0,-999.0,66,-99.99,,,-99.99,0.000000,,2013-05-08 08:00:00,
2013-05-08 04:43:00,59.0,47.0,-100.00,SE,135,4.0,-999.0,66,-99.99,,,-99.99,0.000000,,2013-05-08 08:43:00,
2013-05-08 04:52:00,59.0,47.0,-100.00,SE,135,4.0,-999.0,66,-99.99,,,-99.99,0.000000,,2013-05-08 08:52:00,
2013-05-08 05:00:00,58.0,48.0,-100.00,ESE,112,4.0,-999.0,69,-99.99,,,-99.99,0.000000,,2013-05-08 09:00:00,
2013-05-08 05:42:00,58.0,48.0,-100.00,ESE,112,4.0,-999.0,69,-99.99,,,-99.99,0.000000,,2013-05-08 09:42:00,
2013-05-08 05:53:00,58.0,48.0,-100.00,ESE,112,4.0,-999.0,69,-99.99,,,-99.99,0.000000,,2013-05-08 09:53:00,
2013-05-08 06:00:00,55.0,48.0,-100.00,ESE,112,1.0,-999.0,76,-99.99,,,-99.99,0.000000,,2013-05-08 10:00:00,
2013-05-08 06:42:00,55.0,48.0,-100.00,ESE,112,1.0,-999.0,76,-99.99,,,-99.99,0.000000,,2013-05-08 10:42:00,
2013-05-08 06:53:00,55.0,48.0,-100.00,ESE,112,1.0,-999.0,76,-99.99,,,-99.99,0.000000,,2013-05-08 10:53:00,
2013-05-08 07:00:00,55.0,48.0,-100.00,ESE,112,3.0,-999.0,77,-99.99,,,-99.99,8.120000,,2013-05-08 11:00:00,
2013-05-08 07:42:00,55.0,48.0,-100.00,ESE,112,3.0,-999.0,77,-99.99,,,-99.99,8.120000,,2013-05-08 11:42:00,
2013-05-08 07:52:00,55.0,48.0,-100.00,ESE,112,3.0,-999.0,77,-99.99,,,-99.99,8.120000,,2013-05-08 11:52:00,
2013-05-08 09:00:00,64.0,50.0,-100.00,ENE,67,2.0,-999.0,60,-99.99,,,-99.99,234.320007,,2013-05-08 13:00:00,
2013-05-08 09:42:00,64.0,50.0,-100.00,ENE,67,2.0,-999.0,60,-99.99,,,-99.99,234.320007,,2013-05-08 13:42:00,
2013-05-08 09:52:00,64.0,50.0,-100.00,ENE,67,2.0,-999.0,60,-99.99,,,-99.99,234.320007,,2013-05-08 13:52:00,
2013-05-08 10:00:00,68.0,49.0,-100.00,NW,315,1.0,-999.0,50,-99.99,,,-99.99,401.359985,,2013-05-08 14:00:00,
2013-05-08 10:42:00,68.0,49.0,-100.00,NW,315,1.0,-999.0,50,-99.99,,,-99.99,401.359985,,2013-05-08 14:42:00,
2013-05-08 10:52:00,68.0,49.0,-100.00,NW,315,1.0,-999.0,50,-99.99,,,-99.99,401.359985,,2013-05-08 14:52:00,
2013-05-08 11:00:00,71.0,50.0,-100.00,NW,315,2.0,-999.0,46,-99.99,,,-99.99,578.840027,,2013-05-08 15:00:00,
2013-05-08 11:42:00,71.0,50.0,-100.00,NW,315,2.0,-999.0,46,-99.99,,,-99.99,578.840027,,2013-05-08 15:42:00,
2013-05-08 11:53:00,71.0,50.0,-100.00,NW,315,2.0,-999.0,46,-99.99,,,-99.99,578.840027,,2013-05-08 15:53:00,
2013-05-08 12:00:00,73.0,48.0,-100.00,West,270,3.0,-999.0,40,-99.99,,,-99.99,723.840027,,2013-05-08 16:00:00,
2013-05-08 12:42:00,73.0,48.0,-100.00,West,270,3.0,-999.0,40,-99.99,,,-99.99,723.840027,,2013-05-08 16:42:00,
2013-05-08 12:52:00,73.0,48.0,-100.00,West,270,3.0,-999.0,40,-99.99,,,-99.99,723.840027,,2013-05-08 16:52:00,
2013-05-08 13:00:00,73.0,47.0,-100.00,NW,315,4.0,-999.0,39,-99.99,,,-99.99,266.799988,,2013-05-08 17:00:00,
2013-05-08 13:52:00,73.0,47.0,-100.00,NW,315,4.0,-999.0,39,-99.99,,,-99.99,266.799988,,2013-05-08 17:52:00,
2013-05-08 14:00:00,75.0,47.0,-100.00,NNW,337,4.0,-999.0,36,-99.99,,,-99.99,419.920013,,2013-05-08 18:00:00,
2013-05-08 14:42:00,75.0,47.0,-100.00,NNW,337,4.0,-999.0,36,-99.99,,,-99.99,419.920013,,2013-05-08 18:42:00,
2013-05-08 14:52:00,75.0,47.0,-100.00,NNW,337,4.0,-999.0,36,-99.99,,,-99.99,419.920013,,2013-05-08 18:52:00,
2013-05-08 15:00:00,74.0,47.0,-100.00,NW,315,4.0,-999.0,37,-99.99,,,-99.99,388.600006,,2013-05-08 19:00:00,
2013-05-08 15:42:00,74.0,47.0,-100.00,NW,315,4.0,-999.0,37,-99.99,,,-99.99,388.600006,,2013-05-08 19:42:00,
2013-05-08 15:52:00,74.0,47.0,-100.00,NW,315,4.0,-999.0,37,-99.99,,,-99.99,388.600006,,2013-05-08 19:52:00,
2013-05-08 16:00:00,77.0,46.0,-100.00,NW,315,6.0,-999.0,33,-99.99,,,-99.99,725.000000,,2013-05-08 20:00:00,
2013-05-08 16:42:00,77.0,46.0,-100.00,NW,315,6.0,-999.0,33,-99.99,,,-99.99,725.000000,,2013-05-08 20:42:00,
2013-05-08 16:52:00,77.0,46.0,-100.00,NW,315,6.0,-999.0,33,-99.99,,,-99.99,725.000000,,2013-05-08 20:52:00,
2013-05-08 17:00:00,74.0,48.0,-100.00,NE,45,6.0,-999.0,39,-99.99,,,-99.99,351.480011,,2013-05-08 21:00:00,
2013-05-08 17:43:00,74.0,48.0,-100.00,NE,45,6.0,-999.0,39,-99.99,,,-99.99,351.480011,,2013-05-08 21:43:00,
2013-05-08 17:53:00,74.0,48.0,-100.00,NE,45,6.0,-999.0,39,-99.99,,,-99.99,351.480011,,2013-05-08 21:53:00,
2013-05-08 18:00:00,76.0,44.0,-100.00,North,0,5.0,-999.0,32,-99.99,,,-99.99,468.640015,,2013-05-08 22:00:00,
2013-05-08 18:42:00,76.0,44.0,-100.00,North,0,5.0,-999.0,32,-99.99,,,-99.99,468.640015,,2013-05-08 22:42:00,
2013-05-08 18:53:00,76.0,44.0,-100.00,North,0,5.0,-999.0,32,-99.99,,,-99.99,468.640015,,2013-05-08 22:53:00,
2013-05-08 19:00:00,75.0,41.0,-100.00,NW,315,6.0,-999.0,29,-99.99,,,-99.99,331.760010,,2013-05-08 23:00:00,
2013-05-08 19:42:00,75.0,41.0,-100.00,NW,315,6.0,-999.0,29,-99.99,,,-99.99,331.760010,,2013-05-08 23:42:00,
2013-05-08 19:53:00,75.0,41.0,-100.00,NW,315,6.0,-999.0,29,-99.99,,,-99.99,331.760010,,2013-05-08 23:53:00,
2013-05-08 21:00:00,69.0,40.0,-100.00,NNW,337,3.0,-999.0,35,-99.99,,,-99.99,30.160000,,2013-05-09 01:00:00,
2013-05-08 21:42:00,69.0,40.0,-100.00,NNW,337,3.0,-999.0,35,-99.99,,,-99.99,30.160000,,2013-05-09 01:42:00,
2013-05-08 21:53:00,69.0,40.0,-100.00,NNW,337,3.0,-999.0,35,-99.99,,,-99.99,30.160000,,2013-05-09 01:53:00,
2013-05-08 22:00:00,64.0,42.0,-100.00,SSE,157,1.0,-999.0,43,-99.99,,,-99.99,0.000000,,2013-05-09 02:00:00,
2013-05-08 23:00:00,61.0,43.0,-100.00,SW,225,0.0,-999.0,50,-99.99,,,-99.99,0.000000,,2013-05-09 03:00:00,
2013-05-08 23:43:00,61.0,43.0,-100.00,SW,225,0.0,-999.0,50,-99.99,,,-99.99,0.000000,,2013-05-09 03:43:00,
2013-05-08 23:53:00,61.0,43.0,-100.00,SW,225,0.0,-999.0,50,-99.99,,,-99.99,0.000000,,2013-05-09 03:53:00,